Regional Weather Roundup
Issued by NWS Charleston, WV

Home | Current Version | Previous Version | Text Only | Print | Product List | Glossary Off
Versions: 1 2 3 4 5 6 7 8 9 10 11 12 13 14 15 16 17 18 19 20 21 22 23 24 25 26 27 28 29 30 31 32 33 34 35 36 37 38 39 40 41 42 43 44 45 46 47 48 49 50

000
ASUS41 KRLX 040010
RWRRLX
West Virginia Regional Weather Roundup
National Weather Service Charleston WV
800 PM EDT FRI JUL 03 2015

Note: "fair" indicates few or no clouds below 12,000 feet with no
significant weather and/or obstructions to visibility.

WVZ003-040100-
Northern Panhandle of West Virginia

CITY           SKY/WX    TMP DP  RH WIND       PRES   REMARKS
WHEELING       HVY RAIN  65  64  97 NE5       29.90R VSB 1/2
$$

WVZ009-040100-
Northwest West Virginia

CITY           SKY/WX    TMP DP  RH WIND       PRES   REMARKS
PARKERSBURG    CLOUDY    68  65  90 CALM      29.89R FOG
$$

WVZ006-040100-
Western West Virginia

CITY           SKY/WX    TMP DP  RH WIND       PRES   REMARKS
HUNTINGTON     TSTM      70  68  93 SW3       29.85R
$$

WVZ015-040100-
West Central West Virginia

CITY           SKY/WX    TMP DP  RH WIND       PRES   REMARKS
CHARLESTON     MOCLDY    73  70  90 CALM      29.86R
$$

WVZ022-031-040100-
North Central West Virginia

CITY           SKY/WX    TMP DP  RH WIND       PRES   REMARKS
CLARKSBURG     CLOUDY    70  67  90 CALM      29.88R
MORGANTOWN     CLOUDY    71  62  73 E5        29.90R
$$

WVZ025-035-042-045-040100-
Southern West Virginia

CITY           SKY/WX    TMP DP  RH WIND       PRES   REMARKS
BECKLEY        MOCLDY    68  65  90 S6        29.95S
LOGAN            N/A     73  68  83 CALM      29.87R
BLUEFIELD      CLOUDY    71  63  75 W3        29.98S
LEWISBURG      CLOUDY    66  64  90 CALM      29.97S FOG
$$

WVZ047-040100-
Northern Mountains of West Virginia

CITY           SKY/WX    TMP DP  RH WIND       PRES   REMARKS
ELKINS         CLOUDY    69  60  73 S7        29.94R
$$

WVZ052-040100-
Eastern Panhandle of West Virginia

CITY           SKY/WX    TMP DP  RH WIND       PRES   REMARKS
MARTINSBURG    CLOUDY    71  65  81 CALM      29.94F
PETERSBURG     CLOUDY    67  63  87 CALM      29.94S FOG
$$



USA.gov is the U.S. government's official web portal to all federal, state and local government web resources and services.